Location: Voyageurs National Park
(48.5020°N, 92.9292°W)
Time: 06:08:12
(UTC-06:00)

PCSat - Visible Passes

Search period start: 23 November 2014 00:00
Search period end: 03 December 2014 00:00
Orbit: 786 x 796 km, 67.1° (Epoch: 23 November)

Date Brightness Start Highest point End Pass type
(mag) Time Alt. Az. Time Alt. Az. Time Alt. Az.
23 Nov 12.3 03:02:00 13° ENE 03:02:00 13° ENE 03:03:03 10° ENE visible
23 Nov 10.1 04:42:46 42° N 04:44:13 54° NE 04:49:31 10° SE visible
23 Nov 10.5 06:23:33 14° WNW 06:27:22 29° WSW 06:31:59 10° S visible
24 Nov 10.5 04:13:35 43° NE 04:13:35 43° NE 04:18:39 10° ESE visible
24 Nov 10.1 05:54:21 25° WNW 05:56:54 39° WSW 06:01:52 10° S visible
25 Nov 11.4 03:44:29 28° ENE 03:44:29 28° ENE 03:47:41 10° ESE visible
25 Nov 9.7 05:25:15 44° W 05:26:23 51° WSW 05:31:36 10° SSE visible
26 Nov 12.2 03:15:27 15° E 03:15:27 15° E 03:16:37 10° E visible
26 Nov 9.6 04:56:15 65° SSW 04:56:15 65° SSW 05:01:11 10° SSE visible
26 Nov 11.4 06:37:02 10° W 06:38:12 11° W 06:39:33 10° WSW visible
26 Nov 12.0 19:35:37 10° SSW 19:35:47 11° SSW 19:35:47 11° SSW visible
27 Nov 10.5 04:27:19 39° SSE 04:27:19 39° SSE 04:30:39 10° SSE visible
27 Nov 11.2 06:08:06 15° WSW 06:08:06 15° WSW 06:10:53 10° SW visible
27 Nov 11.3 19:05:20 10° S 19:06:57 19° S 19:06:57 19° S visible
28 Nov 11.6 03:58:27 20° SE 03:58:27 20° SE 04:00:01 10° SE visible
28 Nov 11.2 05:39:15 18° SW 05:39:15 18° SW 05:41:21 10° SSW visible
28 Nov 10.8 18:35:12 10° S 18:38:04 24° SE 18:38:04 24° SE visible
28 Nov 11.9 20:17:43 10° SW 20:18:51 16° WSW 20:18:51 16° WSW visible
29 Nov 11.5 05:10:27 15° SSW 05:10:27 15° SSW 05:11:30 10° SSW visible
29 Nov 10.8 18:05:17 10° SSE 18:09:05 23° ESE 18:09:05 23° ESE visible
29 Nov 11.0 19:46:56 10° SW 19:49:52 33° SW 19:49:52 33° SW visible
30 Nov 11.0 17:35:38 10° SE 17:38:59 17° ESE 17:40:02 16° E visible
30 Nov 9.8 19:16:15 10° SW 19:20:48 64° SW 19:20:48 64° SW visible
01 Dec 11.4 17:06:32 10° SE 17:08:37 12° ESE 17:10:42 10° E visible
01 Dec 9.4 18:45:41 10° SSW 18:51:04 74° ESE 18:51:39 67° ENE visible
01 Dec 11.9 20:30:27 10° W 20:32:25 19° WNW 20:32:25 19° WNW visible
02 Dec 9.6 18:15:14 10° SSW 18:20:30 56° ESE 18:22:24 37° ENE visible
02 Dec 11.2 19:59:22 10° WSW 20:03:10 30° WNW 20:03:10 30° WNW visible
